Flag for Germany Weather past 2 weeks in Herzogenrath, North Rhine-Westphalia, Germany

Now
65 °F

Overcast.


Feels Like: 65 °F
Forecast: 54 / 76 °F
Wind: 3 mph from Northeast

Location: Maastricht Airport Zuid Limburg

Current Time: Jul 25, 2014 at 11:14:24 PM

Latest Report: Jul 25, 2014 at 10:00 PM


Visibility: 8 mi

Pressure: 29.93 "Hg

Humidity: 86%

Dew point: 61 °F

Location of HerzogenrathLocation

Historic Weather in Herzogenrath — Graph

°F

Herzogenrath temperature yesterday

Maximum temperature yesterday: 79 °F (at 4:00 PM)
Minimum temperature yesterday: 61 °F (at 5:00 AM)
Average temperature yesterday: 69 °F

Past Weeks' High & Low Weather Summary

 TemperatureHumidityPressure
High91 °F (Jul 18, 6:00 PM)100% (Jul 11, 1:00 AM)30.19 "Hg (Jul 11, 1:00 AM)
Low54 °F (Jul 15, 4:00 AM)32% (Jul 19, 3:00 PM)29.73 "Hg (Jul 13, 6:00 PM)
Average69 °F78%29.97 "Hg
* Reported Jul 10 10:00 PM — Jul 25 10:00 PM, Herzogenrath, Weather by CustomWeather, © 2014

Note: Actual official high and low records may vary slightly from our data, if they occured in-between our weather recording intervals... More about our weather records

Advertising

Herzogenrath weather history for previous 24 hours

 ConditionsComfort  
Time TempWeatherWind HumidityBarometerVisibility
10:00 PM
Jul 25
65 °FOvercast.3 mph86%29.93 "Hg7 mi
9:00 PM67 °FScattered clouds.3 mph81%29.92 "Hg8 mi
8:00 PM68 °FSunny.5 mph77%29.92 "Hg9 mi
7:00 PM69 °FOvercast.5 mph75%29.91 "Hg10 mi
6:00 PM70 °FOvercast.5 mph75%29.91 "Hg10 mi
5:00 PM71 °FPassing clouds.5 mph70%29.92 "Hg11 mi
4:00 PM69 °FOvercast.5 mph75%29.93 "Hg12 mi
3:00 PM69 °FOvercast.5 mph74%29.94 "Hg14 mi
2:00 PM70 °FOvercast.6 mph72%29.95 "Hg12 mi
1:00 PM69 °FOvercast.6 mph73%29.96 "Hg12 mi
12:00 PM70 °FOvercast.5 mph74%29.97 "Hg12 mi
11:00 AM68 °FScattered clouds.5 mph78%29.97 "Hg11 mi
10:00 AM64 °FOvercast.5 mph87%29.97 "Hg9 mi
9:00 AM62 °FOvercast.5 mph88%29.97 "Hg9 mi
8:00 AM59 °FFog.2 mph95%29.97 "Hg6 mi
7:00 AM59 °FPassing clouds.3 mph94%29.96 "Hg6 mi
6:00 AM58 °FFog.5 mph95%29.96 "Hg5 mi
5:00 AM57 °FClear.1 mph95%29.95 "Hg7 mi
4:00 AM59 °FClear.2 mph93%29.96 "Hg9 mi
3:00 AM59 °FPassing clouds.2 mph93%29.97 "Hg11 mi
2:00 AM61 °FPassing clouds.2 mph90%29.98 "Hg13 mi
1:00 AM62 °FPassing clouds.3 mph86%29.98 "Hg19 mi
12:00 AM63 °FPassing clouds.5 mph87%29.98 "Hg16 mi
11:00 PM
Jul 24
64 °FClear.2 mph83%29.97 "Hg19 mi
Weather by CustomWeather, © 2014

See weather overviewHow to use our weather pages